Weather History for KPHF - September, 2013

Change the Weather History Date:

Wednesday, September 25, 2013

  Actual Average Record
Temperature  
Mean Temperature 64 °F -  
Max Temperature 79 °F 79 °F 95 °F (2010)
Min Temperature 50 °F 61 °F 45 °F (1974)
Growing Degree Days 14 (Base 50)    
Moisture  
Dew Point 51 °F    
Average Humidity 80    
Maximum Humidity 94    
Minimum Humidity 38    
Precipitation  
Precipitation 0.00 in - - ()
Sea Level Pressure  
Sea Level Pressure 29.95 in    
Wind  
Wind Speed 0 mph (ESE)    
Max Wind Speed 8 mph    
Max Gust Speed -    
Visibility 5 miles    
Events Fog , Rain    
Averages and records for this station are not official NWS values.
T = Trace of Precipitation, MM = Missing Value Source: NWS Daily Summary

Daily Weather History Graph

Daily Weather History Graph

Search for Another Location

Airport or City:

Trip Planner

Search our weather history database for the weather conditions in past years. The results will help you decide how hot, cold, wet, or windy it might be!

Date:

Astronomy

Sep. 25, 2013 Rise Set
Actual Time 6:56 AM EDT 6:57 PM EDT
Civil Twilight 6:30 AM EDT 7:23 PM EDT
Nautical Twilight 6:00 AM EDT 7:54 PM EDT
Astronomical Twilight 5:29 AM EDT 8:24 PM EDT
Moon 11:09 PM EDT (9/25) 12:53 PM EDT (9/25)
Length of Visible Light 12h 53m
Length of Day
12h 01m
Waning Gibbous, 64% of the Moon is Illuminated
Sep 25
Waning Gibbous
Sep 26
Last Quarter
Oct 4
New
Oct 11
First Quarter
Oct 18
Full

Hourly Weather History & Observations

Time (EDT) Temp. Dew Point Humidity Pressure Visibility Wind Dir Wind Speed Gust Speed Precip Events Conditions
12:24 AM 53.6 °F 50.0 °F 88% 29.97 in 2.5 mi Calm Calm - 0.00 in   Clear
12:39 AM 53.6 °F 51.8 °F 94% 29.97 in 1.5 mi Calm Calm - 0.00 in   Clear
12:42 AM 53.6 °F 50.0 °F 88% 29.97 in 3.0 mi Calm Calm - 0.00 in   Clear
12:54 AM 54.0 °F 51.1 °F 90% 29.97 in 6.0 mi Calm Calm - 0.00 in   Clear
1:28 AM 55.4 °F 51.8 °F 88% 29.97 in 1.8 mi Calm Calm - N/A   Clear
1:40 AM 55.4 °F 51.8 °F 88% 29.97 in 3.0 mi Calm Calm - N/A   Clear
1:47 AM 55.4 °F 51.8 °F 88% 29.97 in 0.8 mi Calm Calm - N/A   Clear
1:54 AM 55.0 °F 51.1 °F 86% 29.97 in 0.8 mi Calm Calm - N/A   Clear
2:00 AM 55.4 °F 51.8 °F 88% 29.97 in 2.0 mi Calm Calm - N/A   Clear
2:10 AM 55.4 °F 51.8 °F 88% 29.97 in 10.0 mi Calm Calm - N/A   Clear
2:27 AM 55.4 °F 51.8 °F 88% 29.96 in 1.8 mi Calm Calm - N/A   Clear
2:34 AM 53.6 °F 51.8 °F 94% 29.96 in 0.2 mi Calm Calm - N/A Fog Fog
2:41 AM 53.6 °F 51.8 °F 94% 29.96 in 0.2 mi Calm Calm - N/A Fog Fog
2:50 AM 53.6 °F 50.0 °F 88% 29.96 in 0.2 mi Calm Calm - N/A Fog Fog
2:54 AM 54.0 °F 51.1 °F 90% 29.96 in 0.2 mi Calm Calm - N/A Fog Fog
3:25 AM 53.6 °F 50.0 °F 88% 29.96 in 0.5 mi Calm Calm - N/A Fog Fog
3:50 AM 53.6 °F 50.0 °F 88% 29.95 in 0.8 mi Calm Calm - N/A   Mist
3:54 AM 54.0 °F 50.0 °F 86% 29.95 in 0.8 mi Calm Calm - N/A   Mist
4:02 AM 53.6 °F 50.0 °F 88% 29.95 in 1.2 mi Calm Calm - N/A   Partly Cloudy
4:14 AM 53.6 °F 50.0 °F 88% 29.95 in 0.8 mi Calm Calm - N/A   Mist
4:25 AM 53.6 °F 50.0 °F 88% 29.95 in 0.2 mi Calm Calm - N/A Fog Fog
4:54 AM 52.0 °F 48.9 °F 89% 29.94 in 0.2 mi Calm Calm - N/A Fog Fog
5:00 AM 51.8 °F 48.2 °F 88% 29.94 in 0.5 mi Calm Calm - N/A Fog Fog
5:10 AM 53.6 °F 50.0 °F 88% 29.95 in 2.0 mi Calm Calm - N/A   Clear
5:18 AM 53.6 °F 48.2 °F 82% 29.95 in 5.0 mi Calm Calm - N/A   Clear
5:38 AM 51.8 °F 48.2 °F 88% 29.95 in 2.5 mi Calm Calm - N/A   Clear
5:45 AM 51.8 °F 48.2 °F 88% 29.96 in 4.0 mi Calm Calm - N/A   Clear
5:54 AM 53.1 °F 50.0 °F 89% 29.96 in 10.0 mi Calm Calm - N/A   Clear
6:10 AM 51.8 °F 48.2 °F 88% 29.96 in 1.8 mi Calm Calm - N/A   Clear
6:23 AM 51.8 °F 48.2 °F 88% 29.96 in 3.0 mi Calm Calm - N/A   Clear
6:28 AM 51.8 °F 48.2 °F 88% 29.96 in 1.2 mi Calm Calm - N/A   Clear
6:36 AM 53.6 °F 48.2 °F 82% 29.95 in 0.8 mi Calm Calm - N/A   Clear
6:42 AM 51.8 °F 48.2 °F 88% 29.95 in 2.0 mi Calm Calm - N/A   Clear
6:47 AM 50.0 °F 48.2 °F 94% 29.95 in 0.5 mi Calm Calm - N/A Fog Fog
6:54 AM 50.0 °F 46.9 °F 89% 29.95 in 0.2 mi Calm Calm - N/A Fog Fog
7:05 AM 51.8 °F 46.4 °F 82% 29.95 in 10.0 mi Calm Calm - N/A   Clear
7:54 AM 53.1 °F 51.1 °F 93% 29.95 in 10.0 mi Calm Calm - N/A   Clear
8:01 AM 55.4 °F 51.8 °F 88% 29.95 in 2.0 mi Calm Calm - N/A   Clear
8:08 AM 55.4 °F 53.6 °F 94% 29.95 in 6.0 mi Calm Calm - N/A   Clear
8:54 AM 64.9 °F 57.9 °F 78% 29.95 in 10.0 mi Calm Calm - 0.00 in Rain Light Rain
9:54 AM 70.0 °F 55.9 °F 61% 29.96 in 10.0 mi Calm Calm - 0.00 in   Clear
10:54 AM 73.0 °F 54.0 °F 51% 29.96 in 10.0 mi Variable 4.6 mph - N/A   Clear
11:54 AM 75.0 °F 52.0 °F 44% 29.96 in 10.0 mi Calm Calm - N/A   Clear
12:54 PM 75.9 °F 51.1 °F 42% 29.94 in 10.0 mi ESE 4.6 mph - N/A   Clear
1:54 PM 77.0 °F 52.0 °F 42% 29.92 in 10.0 mi Calm Calm - N/A   Clear
2:54 PM 79.0 °F 51.1 °F 38% 29.90 in 10.0 mi Calm Calm - N/A   Clear
3:54 PM 77.0 °F 51.1 °F 40% 29.89 in 10.0 mi SW 6.9 mph - N/A   Clear
4:54 PM 75.0 °F 53.1 °F 46% 29.88 in 10.0 mi East 8.1 mph - N/A   Clear
5:54 PM 72.0 °F 53.1 °F 51% 29.89 in 10.0 mi ENE 5.8 mph - N/A   Clear
6:54 PM 68.0 °F 54.0 °F 61% 29.89 in 10.0 mi ESE 4.6 mph - N/A   Clear
7:54 PM 66.0 °F 54.0 °F 65% 29.90 in 10.0 mi Calm Calm - N/A   Clear
8:54 PM 63.0 °F 55.9 °F 78% 29.91 in 10.0 mi Calm Calm - N/A   Clear
9:54 PM 63.0 °F 55.9 °F 78% 29.91 in 10.0 mi Calm Calm - N/A   Clear
10:54 PM 62.1 °F 55.0 °F 78% 29.90 in 10.0 mi Calm Calm - N/A   Clear
11:54 PM 62.1 °F 55.9 °F 80% 29.91 in 10.0 mi Calm Calm - N/A   Clear